TimeEST,TemperatureF,Dew PointF,Humidity,Sea Level PressureIn,VisibilityMPH,Wind Direction,Wind SpeedMPH,Gust SpeedMPH,PrecipitationIn,Events,Conditions,WindDirDegrees,DateUTC
12:15 AM,30.2,14.0,51,29.84,10.0,WSW,9.2,-,N/A,,Mostly Cloudy,240,2013-02-01 05:15:00
12:35 AM,30.2,12.2,47,29.84,10.0,SW,8.1,-,N/A,,Scattered Clouds,230,2013-02-01 05:35:00
12:55 AM,30.2,12.2,47,29.83,10.0,WSW,10.4,-,N/A,,Clear,240,2013-02-01 05:55:00
1:15 AM,30.2,14.0,51,29.84,10.0,WSW,9.2,16.1,N/A,,Clear,240,2013-02-01 06:15:00
1:35 AM,30.2,14.0,51,29.83,10.0,WSW,6.9,-,N/A,,Clear,240,2013-02-01 06:35:00
1:55 AM,30.2,14.0,51,29.82,10.0,WSW,5.8,-,N/A,,Clear,240,2013-02-01 06:55:00
2:15 AM,30.2,14.0,51,29.83,10.0,SW,5.8,-,N/A,,Clear,230,2013-02-01 07:15:00
2:35 AM,30.2,14.0,51,29.84,10.0,SW,5.8,-,N/A,,Clear,230,2013-02-01 07:35:00
3:15 AM,30.2,14.0,51,29.84,10.0,SW,5.8,-,N/A,,Clear,230,2013-02-01 08:15:00
3:35 AM,30.2,14.0,51,29.83,10.0,SW,6.9,-,N/A,,Clear,230,2013-02-01 08:35:00
3:55 AM,30.2,14.0,51,29.83,10.0,SW,4.6,-,N/A,,Clear,230,2013-02-01 08:55:00
4:15 AM,30.2,15.8,55,29.83,10.0,Calm,Calm,-,N/A,,Clear,0,2013-02-01 09:15:00
4:35 AM,30.2,15.8,55,29.83,10.0,Calm,Calm,-,N/A,,Clear,0,2013-02-01 09:35:00
5:15 AM,30.2,15.8,55,29.83,10.0,WSW,4.6,-,N/A,,Clear,250,2013-02-01 10:15:00
5:35 AM,32.0,15.8,51,29.84,10.0,Calm,Calm,-,N/A,,Clear,0,2013-02-01 10:35:00
5:55 AM,32.0,17.6,55,29.84,10.0,Calm,Calm,-,N/A,,Clear,0,2013-02-01 10:55:00
6:15 AM,32.0,17.6,55,29.84,10.0,West,3.5,-,N/A,,Clear,280,2013-02-01 11:15:00
6:35 AM,32.0,17.6,55,29.84,10.0,Calm,Calm,-,N/A,,Clear,0,2013-02-01 11:35:00
7:15 AM,30.2,17.6,60,29.85,10.0,NW,4.6,-,N/A,,Scattered Clouds,310,2013-02-01 12:15:00
7:35 AM,30.2,17.6,60,29.85,10.0,West,6.9,-,N/A,,Clear,280,2013-02-01 12:35:00
7:55 AM,30.2,19.4,64,29.85,10.0,West,4.6,-,N/A,,Clear,260,2013-02-01 12:55:00
8:15 AM,30.2,19.4,64,29.86,10.0,West,5.8,-,N/A,,Clear,270,2013-02-01 13:15:00
8:35 AM,32.0,19.4,60,29.87,10.0,NW,6.9,-,N/A,,Clear,310,2013-02-01 13:35:00
9:15 AM,30.2,19.4,64,29.89,5.0,NW,12.7,18.4,N/A,,Overcast,310,2013-02-01 14:15:00
9:35 AM,28.4,21.2,74,29.91,2.0,NNW,10.4,21.9,N/A,,Overcast,340,2013-02-01 14:35:00
9:55 AM,26.6,21.2,80,29.91,1.8,WNW,8.1,-,N/A,,Overcast,300,2013-02-01 14:55:00
10:15 AM,28.4,19.4,69,29.92,10.0,WNW,8.1,-,N/A,,Scattered Clouds,290,2013-02-01 15:15:00
10:35 AM,30.2,17.6,60,29.92,10.0,WNW,11.5,19.6,N/A,,Clear,300,2013-02-01 15:35:00
10:55 AM,30.2,14.0,51,29.93,10.0,WNW,13.8,23.0,N/A,,Clear,290,2013-02-01 15:55:00
11:15 AM,30.2,12.2,47,29.93,10.0,NW,12.7,21.9,N/A,,Clear,310,2013-02-01 16:15:00
11:35 AM,30.2,10.4,44,29.94,10.0,WNW,13.8,25.3,N/A,,Scattered Clouds,300,2013-02-01 16:35:00
11:55 AM,30.2,8.6,40,29.94,10.0,WNW,13.8,26.5,N/A,,Scattered Clouds,290,2013-02-01 16:55:00
12:15 PM,30.2,8.6,40,29.94,10.0,WNW,12.7,23.0,N/A,,Scattered Clouds,300,2013-02-01 17:15:00
12:35 PM,30.2,8.6,40,29.95,10.0,WNW,15.0,24.2,N/A,,Scattered Clouds,290,2013-02-01 17:35:00
12:55 PM,30.2,8.6,40,29.96,10.0,NW,12.7,20.7,N/A,,Scattered Clouds,310,2013-02-01 17:55:00
1:15 PM,32.0,10.4,41,29.97,10.0,NW,9.2,20.7,N/A,,Mostly Cloudy,310,2013-02-01 18:15:00
1:35 PM,30.2,6.8,37,29.98,10.0,NW,16.1,24.2,N/A,,Scattered Clouds,310,2013-02-01 18:35:00
1:55 PM,32.0,10.4,41,29.98,10.0,WNW,15.0,25.3,N/A,,Scattered Clouds,290,2013-02-01 18:55:00
2:15 PM,32.0,6.8,35,29.99,10.0,WNW,15.0,32.2,N/A,,Scattered Clouds,290,2013-02-01 19:15:00
2:35 PM,32.0,6.8,35,30.00,10.0,West,12.7,18.4,N/A,,Mostly Cloudy,280,2013-02-01 19:35:00
2:55 PM,30.2,6.8,37,30.01,10.0,WNW,18.4,26.5,N/A,,Scattered Clouds,290,2013-02-01 19:55:00
3:15 PM,32.0,6.8,35,30.02,10.0,West,13.8,20.7,N/A,,Scattered Clouds,270,2013-02-01 20:15:00
3:35 PM,30.2,5.0,34,30.03,10.0,WNW,8.1,24.2,N/A,,Scattered Clouds,300,2013-02-01 20:35:00
3:55 PM,30.2,8.6,40,30.05,10.0,West,16.1,24.2,N/A,,Clear,270,2013-02-01 20:55:00
4:15 PM,30.2,8.6,40,30.06,10.0,WNW,15.0,25.3,N/A,,Scattered Clouds,290,2013-02-01 21:15:00
4:35 PM,30.2,8.6,40,30.07,10.0,West,15.0,21.9,N/A,,Scattered Clouds,280,2013-02-01 21:35:00
5:15 PM,28.4,8.6,43,30.10,10.0,West,9.2,19.6,N/A,,Scattered Clouds,270,2013-02-01 22:15:00
5:35 PM,28.4,8.6,43,30.11,10.0,West,11.5,17.3,N/A,,Scattered Clouds,260,2013-02-01 22:35:00
6:15 PM,28.4,8.6,43,30.14,10.0,WNW,12.7,17.3,N/A,,Clear,290,2013-02-01 23:15:00
6:35 PM,28.4,8.6,43,30.15,10.0,West,6.9,-,N/A,,Clear,280,2013-02-01 23:35:00
6:55 PM,26.6,6.8,43,30.17,10.0,West,12.7,19.6,N/A,,Clear,280,2013-02-01 23:55:00
7:15 PM,26.6,6.8,43,30.18,10.0,West,10.4,18.4,N/A,,Clear,270,2013-02-02 00:15:00
7:35 PM,26.6,6.8,43,30.19,10.0,WNW,11.5,16.1,N/A,,Clear,290,2013-02-02 00:35:00
7:55 PM,26.6,6.8,43,30.20,10.0,WNW,10.4,18.4,N/A,,Clear,290,2013-02-02 00:55:00
8:15 PM,26.6,6.8,43,30.21,10.0,West,10.4,20.7,N/A,,Clear,270,2013-02-02 01:15:00
8:35 PM,26.6,6.8,43,30.21,10.0,West,5.8,-,N/A,,Clear,270,2013-02-02 01:35:00
8:55 PM,26.6,6.8,43,30.22,10.0,West,12.7,21.9,N/A,,Clear,280,2013-02-02 01:55:00
9:15 PM,26.6,6.8,43,30.23,10.0,WNW,8.1,17.3,N/A,,Clear,290,2013-02-02 02:15:00
9:35 PM,26.6,6.8,43,30.24,10.0,West,6.9,19.6,N/A,,Clear,280,2013-02-02 02:35:00
9:55 PM,24.8,8.6,50,30.25,10.0,WNW,10.4,18.4,N/A,,Clear,290,2013-02-02 02:55:00
10:15 PM,24.8,8.6,50,30.25,10.0,WNW,9.2,17.3,N/A,,Clear,290,2013-02-02 03:15:00
10:35 PM,24.8,8.6,50,30.26,10.0,West,9.2,16.1,N/A,,Clear,280,2013-02-02 03:35:00
10:55 PM,24.8,8.6,50,30.26,10.0,West,6.9,-,N/A,,Clear,280,2013-02-02 03:55:00
11:15 PM,23.0,8.6,54,30.27,10.0,WNW,5.8,-,N/A,,Clear,290,2013-02-02 04:15:00
11:35 PM,23.0,8.6,54,30.27,10.0,West,9.2,-,N/A,,Clear,280,2013-02-02 04:35:00
11:55 PM,23.0,8.6,54,30.28,10.0,West,5.8,-,N/A,,Clear,270,2013-02-02 04:55:00